Fremont, MI

10:13 PM EST on December 15, 2019 (GMT -0500)
Fremont

Weather History for KFFX - October, 2019

Change the Weather History Date:

Saturday, October 5, 2019

  Actual Average (WUND) Record (WUND)
Temperature  
Mean Temperature 50 °F -  
Max Temperature 60 °F - - (-1)
Min Temperature 41 °F - - (-1)
Degree Days  
Heating Degree Days 14    
Moisture  
Dew Point 41 °F    
Average Humidity 74    
Maximum Humidity 95    
Minimum Humidity 42    
Precipitation  
Precipitation 0.00 in - - ()
Sea Level Pressure  
Sea Level Pressure 30.16 in    
Wind  
Wind Speed 6 mph ()    
Max Wind Speed 15 mph    
Max Gust Speed 20 mph    
Visibility 10.0 miles    
Events Rain    
Averages and records for this station are not official NWS values.
T = Trace of Precipitation, MM = Missing Value Source: Averaged Metar Reports

Daily Weather History Graph

Daily Weather History Graph

Search for Another Location

Airport or City:

Astronomy

Oct. 05, 2019 Rise Set
Actual Time 7:45 AM EDT 7:18 PM EDT
Civil Twilight 7:17 AM EDT 7:46 PM EDT
Nautical Twilight 6:44 AM EDT 8:19 PM EDT
Astronomical Twilight 6:10 AM EDT 8:53 PM EDT
Moon 3:20 PM EDT (10/5) No Moon Set
Length of Visible Light 12h 29m
Length of Day
11h 32m
Waxing Crescent, 50% of the Moon is Illuminated
Oct 5
Waxing Crescent
Oct 5
First Quarter
Oct 13
Full
Oct 21
Last Quarter
Oct 27
New

Hourly Weather History & Observations

Time (EDT) Temp. Windchill Dew Point Humidity Pressure Visibility Wind Dir Wind Speed Gust Speed Precip Events Conditions
12:16 AM 47.3 °F - 38.5 °F 71% 30.38 in 10.0 mi East 5.8 mph - N/A   Overcast
12:35 AM 46.8 °F - 40.8 °F 80% 30.38 in 10.0 mi East 4.6 mph - N/A   Overcast
12:39 AM 46.8 °F - 41.2 °F 81% 30.38 in 10.0 mi East 4.6 mph - N/A   Overcast
12:58 AM 46.6 °F - 41.0 °F 81% 30.38 in 10.0 mi East 4.6 mph - N/A   Overcast
1:16 AM 46.4 °F 42.9 °F 41.7 °F 84% 30.37 in 10.0 mi East 6.9 mph - N/A   Overcast
1:35 AM 46.4 °F 44.3 °F 41.4 °F 83% 30.37 in 10.0 mi East 4.6 mph - N/A   Overcast
1:55 AM 45.9 °F 41.7 °F 41.4 °F 84% 30.35 in 10.0 mi East 8.1 mph - N/A   Overcast
1:56 AM 45.9 °F 41.7 °F 41.4 °F 84% 30.35 in 10.0 mi East 8.1 mph - N/A   Overcast
2:19 AM 45.7 °F 42.0 °F 41.4 °F 85% 30.35 in 10.0 mi East 6.9 mph - N/A   Overcast
2:37 AM 45.7 °F 42.0 °F 41.4 °F 85% 30.35 in 10.0 mi ESE 6.9 mph - N/A   Overcast
2:55 AM 45.7 °F 42.0 °F 41.2 °F 84% 30.35 in 10.0 mi East 6.9 mph - N/A   Overcast
2:56 AM 45.7 °F 42.0 °F 41.2 °F 84% 30.34 in 10.0 mi East 6.9 mph - N/A   Overcast
3:15 AM 45.5 °F 41.3 °F 41.4 °F 85% 30.34 in 10.0 mi East 8.1 mph - N/A   Overcast
3:35 AM 44.8 °F 41.6 °F 40.6 °F 85% 30.33 in 10.0 mi East 5.8 mph - N/A   Mostly Cloudy
3:55 AM 44.1 °F 39.5 °F 40.3 °F 87% 30.32 in 10.0 mi East 8.1 mph - N/A   Clear
3:59 AM 44.1 °F 40.8 °F 40.3 °F 87% 30.32 in 10.0 mi East 5.8 mph - N/A   Clear
4:18 AM 43.7 °F 39.7 °F 40.1 °F 87% 30.31 in 10.0 mi East 6.9 mph - N/A   Clear
4:36 AM 43.9 °F 39.3 °F 39.9 °F 86% 30.32 in 10.0 mi East 8.1 mph - N/A   Clear
4:55 AM 43.7 °F 39.7 °F 39.7 °F 86% 30.31 in 10.0 mi East 6.9 mph - N/A   Clear
5:15 AM 43.2 °F - 39.4 °F 86% 30.31 in 10.0 mi Calm Calm - N/A   Clear
5:39 AM 43.0 °F 40.3 °F 39.4 °F 87% 30.30 in 10.0 mi East 4.6 mph - N/A   Clear
5:57 AM 42.6 °F 40.9 °F 39.2 °F 88% 30.30 in 10.0 mi ESE 3.5 mph - N/A   Clear
6:15 AM 42.1 °F 39.2 °F 39.4 °F 90% 30.30 in 10.0 mi East 4.6 mph - N/A   Clear
6:35 AM 42.1 °F 39.2 °F 39.4 °F 90% 30.28 in 10.0 mi East 4.6 mph - N/A   Clear
6:55 AM 42.1 °F 38.4 °F 39.4 °F 90% 30.28 in 10.0 mi ESE 5.8 mph - N/A   Clear
7:00 AM 42.3 °F 38.6 °F 39.4 °F 90% 30.28 in 10.0 mi ESE 5.8 mph - N/A   Clear
7:18 AM 42.3 °F 38.6 °F 39.6 °F 90% 30.28 in 10.0 mi ESE 5.8 mph - N/A   Clear
7:36 AM 42.1 °F 39.2 °F 39.6 °F 91% 30.28 in 10.0 mi ESE 4.6 mph - N/A   Clear
7:55 AM 41.9 °F - 39.7 °F 92% 30.27 in 10.0 mi Calm Calm - N/A   Clear
7:56 AM 41.9 °F - 39.7 °F 92% 30.27 in 10.0 mi Calm Calm - N/A   Clear
8:15 AM 41.9 °F 40.0 °F 40.3 °F 94% 30.27 in 10.0 mi East 3.5 mph - N/A   Clear
8:39 AM 43.5 °F 41.9 °F 41.0 °F 91% 30.26 in 10.0 mi ESE 3.5 mph - N/A   Clear
8:57 AM 44.8 °F 41.0 °F 41.0 °F 87% 30.26 in 10.0 mi ESE 6.9 mph - N/A   Clear
9:15 AM 44.8 °F 41.6 °F 41.2 °F 87% 30.25 in 10.0 mi ESE 5.8 mph - N/A   Clear
9:16 AM 44.8 °F 41.0 °F 41.2 °F 87% 30.25 in 10.0 mi ESE 6.9 mph - N/A   Clear
9:35 AM 45.9 °F 42.9 °F 41.4 °F 84% 30.25 in 10.0 mi SE 5.8 mph - N/A   Clear
9:36 AM 46.0 °F 42.5 °F 41.4 °F 84% 30.25 in 10.0 mi ESE 6.9 mph - N/A   Clear
9:55 AM 47.3 °F - 40.6 °F 78% 30.24 in 10.0 mi ESE 3.5 mph - N/A   Clear
10:18 AM 48.0 °F - 38.3 °F 69% 30.23 in 10.0 mi SE 5.8 mph - N/A   Scattered Clouds
10:36 AM 49.3 °F - 38.1 °F 65% 30.21 in 10.0 mi ESE 9.2 mph - N/A   Clear
10:55 AM 51.1 °F - 38.5 °F 62% 30.21 in 10.0 mi SE 10.4 mph 16.1 mph N/A   Clear
10:56 AM 51.3 °F - 38.3 °F 61% 30.21 in 10.0 mi SE 10.4 mph 16.1 mph N/A   Clear
11:15 AM 52.9 °F - 38.7 °F 58% 30.20 in 10.0 mi ESE 12.7 mph 18.4 mph N/A   Clear
11:39 AM 55.0 °F - 38.3 °F 53% 30.19 in 10.0 mi ESE 10.4 mph - N/A   Scattered Clouds
11:56 AM 55.4 °F - 37.8 °F 52% 30.19 in 10.0 mi ESE 11.5 mph - N/A   Scattered Clouds
12:15 PM 57.0 °F - 38.1 °F 49% 30.17 in 10.0 mi SE 10.4 mph 17.3 mph N/A   Mostly Cloudy
12:16 PM 57.0 °F - 38.1 °F 49% 30.17 in 10.0 mi ESE 12.7 mph 17.3 mph N/A   Mostly Cloudy
12:35 PM 56.3 °F - 37.8 °F 50% 30.16 in 10.0 mi ESE 15.0 mph 18.4 mph N/A   Mostly Cloudy
12:36 PM 56.3 °F - 37.6 °F 50% 30.15 in 10.0 mi SE 15.0 mph 18.4 mph N/A   Mostly Cloudy
12:55 PM 57.9 °F - 37.8 °F 47% 30.14 in 10.0 mi ESE 13.8 mph 19.6 mph N/A   Mostly Cloudy
1:18 PM 57.0 °F - 37.4 °F 48% 30.13 in 10.0 mi SE 11.5 mph 19.6 mph N/A   Mostly Cloudy
1:36 PM 58.6 °F - 37.8 °F 46% 30.11 in 10.0 mi SE 9.2 mph 18.4 mph N/A   Mostly Cloudy
1:55 PM 57.7 °F - 37.8 °F 47% 30.10 in 10.0 mi SE 10.4 mph 16.1 mph N/A   Overcast
1:56 PM 57.7 °F - 37.8 °F 47% 30.10 in 10.0 mi SE 9.2 mph 16.1 mph N/A   Overcast
2:15 PM 59.2 °F - 37.9 °F 45% 30.08 in 10.0 mi ESE 10.4 mph - N/A   Mostly Cloudy
2:16 PM 59.2 °F - 37.9 °F 45% 30.08 in 10.0 mi ESE 12.7 mph 19.6 mph N/A   Mostly Cloudy
2:39 PM 60.6 °F - 37.6 °F 42% 30.07 in 10.0 mi ESE 15.0 mph 18.4 mph N/A   Scattered Clouds
2:57 PM 58.6 °F - 37.0 °F 45% 30.07 in 10.0 mi SSE 11.5 mph 18.4 mph N/A   Scattered Clouds
3:15 PM 57.4 °F - 37.4 °F 47% 30.05 in 10.0 mi SE 9.2 mph - N/A   Scattered Clouds
3:16 PM 57.4 °F - 37.4 °F 47% 30.05 in 10.0 mi SE 8.1 mph - N/A   Scattered Clouds
3:55 PM 57.2 °F - 37.9 °F 49% 30.05 in 10.0 mi SSE 4.6 mph - N/A   Scattered Clouds
4:18 PM 56.3 °F - 38.1 °F 51% 30.05 in 10.0 mi SSE 6.9 mph - N/A   Scattered Clouds
4:36 PM 55.9 °F - 38.5 °F 52% 30.03 in 10.0 mi ESE 8.1 mph - N/A   Mostly Cloudy
4:55 PM 55.4 °F - 38.3 °F 53% 30.05 in 10.0 mi SSE 3.5 mph - N/A   Mostly Cloudy
4:56 PM 55.4 °F - 38.3 °F 53% 30.05 in 10.0 mi SSE 4.6 mph - N/A   Mostly Cloudy
5:15 PM 55.4 °F - 38.1 °F 52% 30.05 in 10.0 mi SSE 3.5 mph - N/A   Mostly Cloudy
5:16 PM 55.4 °F - 38.3 °F 53% 30.05 in 10.0 mi SSE 3.5 mph - N/A   Mostly Cloudy
5:39 PM 54.7 °F - 39.0 °F 56% 30.06 in 10.0 mi SSE 4.6 mph - N/A   Overcast
5:57 PM 54.9 °F - 39.7 °F 57% 30.05 in 10.0 mi SSE 3.5 mph - N/A   Overcast
6:15 PM 54.7 °F - 40.1 °F 58% 30.05 in 10.0 mi South 4.6 mph - N/A   Overcast
6:35 PM 54.1 °F - 40.5 °F 60% 30.00 in 10.0 mi SE 11.5 mph 18.4 mph N/A Rain Light Rain
6:55 PM 52.0 °F - 43.5 °F 73% 29.98 in 7.0 mi SE 10.4 mph - N/A Rain Light Rain
7:18 PM 51.8 °F - 48.0 °F 87% 29.98 in 10.0 mi SSE 5.8 mph - N/A Rain Rain
7:36 PM 51.6 °F - 48.6 °F 89% 29.96 in 10.0 mi SE 9.2 mph - N/A Rain Light Rain
7:55 PM 51.8 °F - 48.9 °F 90% 29.96 in 10.0 mi SSE 6.9 mph - N/A Rain Light Rain
8:15 PM 51.8 °F - 49.3 °F 91% 29.93 in 10.0 mi SE 10.4 mph - N/A Rain Rain
8:39 PM 51.8 °F - 49.5 °F 92% 29.89 in 10.0 mi SE 9.2 mph 17.3 mph N/A   Drizzle
8:57 PM 52.0 °F - 49.6 °F 92% 29.90 in 10.0 mi SSE 8.1 mph - N/A   Drizzle
9:15 PM 52.7 °F - 49.8 °F 90% 29.93 in 10.0 mi SSW 6.9 mph - N/A Rain Rain
9:16 PM 52.5 °F - 50.0 °F 91% 29.93 in 10.0 mi SW 6.9 mph - N/A Rain Rain
9:35 PM 52.2 °F - 50.2 °F 93% 29.91 in 10.0 mi SSE 4.6 mph - N/A   Scattered Clouds
9:55 PM 52.3 °F - 50.4 °F 93% 29.89 in 10.0 mi SSE 5.8 mph - N/A   Scattered Clouds
10:18 PM 52.7 °F - 50.4 °F 92% 29.87 in 10.0 mi SE 5.8 mph - N/A   Scattered Clouds
10:36 PM 52.9 °F - 50.5 °F 92% 29.88 in 10.0 mi South 5.8 mph - N/A   Mostly Cloudy
10:55 PM 52.9 °F - 50.9 °F 93% 29.88 in 10.0 mi South 3.5 mph - N/A   Light Drizzle
11:15 PM 52.9 °F - 51.3 °F 94% 29.87 in 10.0 mi South 5.8 mph - N/A   Light Drizzle
11:39 PM 53.2 °F - 51.8 °F 95% 29.89 in 10.0 mi SSW 4.6 mph - N/A   Overcast
11:57 PM 53.2 °F - 52.0 °F 95% 29.89 in 10.0 mi South 3.5 mph - N/A   Overcast